Weather History for Ephrata, WA

Change the Weather History Date:

Saturday, March 2, 2013

  Actual Average Record
Temperature  
Mean Temperature 45 °F 38 °F  
Max Temperature 53 °F 48 °F 62 °F (1968)
Min Temperature 37 °F 29 °F 5 °F (1993)
Degree Days  
Heating Degree Days 20 27  
Month to date heating degree days 37 54  
Since 1 July heating degree days 4270 4627  
Cooling Degree Days 0 0  
Month to date cooling degree days 0 0  
Year to date cooling degree days 0 0  
Moisture  
Dew Point 38 °F    
Average Humidity 71    
Maximum Humidity 92    
Minimum Humidity 49    
Precipitation  
Precipitation 0.00 in 0.03 in 0.42 in (1998)
Month to date precipitation 0.00 0.06  
Year to date precipitation 0.35 1.71  
Sea Level Pressure  
Sea Level Pressure 30.05 in    
Wind  
Wind Speed 7 mph (WNW)    
Max Wind Speed 23 mph    
Max Gust Speed 28 mph    
Visibility 10 miles    
Events      
T = Trace of Precipitation, MM = Missing Value Source: NWS Daily Summary

Daily Weather History Graph

Daily Weather History Graph

Search for Another Location

Airport:

Trip Planner

Search our weather history database for the weather conditions in past years. The results will help you decide how hot, cold, wet, or windy it might be!

Date:

Astronomy

Mar. 02, 2013 Rise Set
Actual Time 6:35 AM PST 5:45 PM PST
Civil Twilight 6:05 AM PST 6:15 PM PST
Nautical Twilight 5:29 AM PST 6:51 PM PST
Astronomical Twilight 4:54 AM PST 7:27 PM PST
Moon 11:56 PM PST (3/2) 8:43 AM PST (3/2)
Length of Visible Light 12h 10m
Length of Day
11h 09m
Waning Gibbous, 73% of the Moon is Illuminated
Mar 2
Waning Gibbous
Mar 4
Last Quarter
Mar 11
New
Mar 19
First Quarter
Mar 27
Full

Hourly Weather History & Observations

Time (PST) Temp. Windchill Dew Point Humidity Pressure Visibility Wind Dir Wind Speed Gust Speed Precip Events Conditions
1:53 AM 39.0 °F - 36.0 °F 89% 30.23 in 10.0 mi Calm Calm - N/A   Clear
4:53 AM 39.0 °F 34.0 °F 37.9 °F 96% 30.20 in 10.0 mi North 6.9 mph - N/A   Clear
5:53 AM 39.0 °F 33.4 °F 37.0 °F 93% 30.18 in 10.0 mi North 8.1 mph - N/A   Clear
7:53 AM 39.9 °F 35.1 °F 37.9 °F 93% 30.16 in 10.0 mi North 6.9 mph - N/A   Partly Cloudy
8:53 AM 42.1 °F 37.1 °F 39.0 °F 89% 30.16 in 10.0 mi North 8.1 mph - N/A   Overcast
9:53 AM 44.1 °F 40.1 °F 39.9 °F 85% 30.16 in 10.0 mi NNE 6.9 mph - N/A   Scattered Clouds
10:53 AM 46.0 °F 43.9 °F 41.0 °F 83% 30.13 in 10.0 mi NE 4.6 mph - N/A   Clear
11:53 AM 46.9 °F - 41.0 °F 80% 30.11 in 10.0 mi Calm Calm - N/A   Scattered Clouds
12:53 PM 48.9 °F - 39.9 °F 71% 30.08 in 10.0 mi WSW 3.5 mph - N/A   Partly Cloudy
1:53 PM 50.0 °F - 41.0 °F 71% 30.04 in 10.0 mi South 3.5 mph - N/A   Mostly Cloudy
2:53 PM 51.1 °F - 43.0 °F 74% 30.02 in 10.0 mi Calm Calm - N/A   Mostly Cloudy
3:53 PM 52.0 °F - 43.0 °F 71% 29.99 in 10.0 mi Calm Calm - N/A   Mostly Cloudy
4:53 PM 51.1 °F - 44.1 °F 77% 29.99 in 10.0 mi SSW 3.5 mph - N/A   Scattered Clouds
5:53 PM 48.0 °F - 43.0 °F 83% 29.95 in 10.0 mi SSE 9.2 mph - N/A   Mostly Cloudy
6:53 PM 48.0 °F - 39.9 °F 74% 29.93 in 10.0 mi SW 11.5 mph - N/A   Clear
7:53 PM 46.9 °F - 39.9 °F 77% 29.93 in 10.0 mi SW 11.5 mph - N/A   Clear
8:53 PM 48.9 °F - 35.1 °F 59% 29.94 in 10.0 mi West 15.0 mph 21.9 mph N/A   Mostly Cloudy
9:36 PM 48.2 °F - 33.8 °F 58% 29.94 in 10.0 mi WNW 19.6 mph 27.6 mph N/A   Mostly Cloudy
9:53 PM 46.9 °F - 34.0 °F 61% 29.97 in 10.0 mi WNW 16.1 mph - N/A   Mostly Cloudy
10:53 PM 45.0 °F 37.6 °F 27.0 °F 49% 29.98 in 10.0 mi WNW 17.3 mph - N/A   Clear
11:53 PM 43.0 °F 37.7 °F 24.1 °F 47% 29.99 in 10.0 mi WNW 9.2 mph - N/A   Clear